EW4436 Weather Reports


time (UTC)temp
C
wind
direction
speed
KPH
gust
KPH
rain 1hr
cm
rain 24hr
cm
rain mn
cm
humidity
%
barometer
mb
20260504050604 9 353 1.6 3.2 0.00 0.00 0.00 84 1011.9
20260504045604 9 353 0.0 1.6 0.00 0.00 0.00 85 1012.0
20260504045104 9 353 0.0 1.6 0.00 0.00 0.00 84 1011.9
20260504044603 10 353 0.0 1.6 0.00 0.00 0.00 83 1011.8
20260504044104 10 353 0.0 1.6 0.00 0.00 0.00 82 1011.8
20260504043103 8 353 0.0 1.6 0.00 0.00 0.00 84 1012.0
20260504042604 8 353 1.6 3.2 0.00 0.00 0.00 85 1011.8
20260504042104 8 353 0.0 3.2 0.00 0.00 0.00 87 1011.8
20260504041604 7 353 1.6 3.2 0.00 0.00 0.00 90 1011.9
20260504040603 7 353 0.0 1.6 0.00 0.00 0.00 91 1011.8
20260504040104 7 353 0.0 0.0 0.00 0.00 0.00 91 1011.6
20260504035603 7 353 0.0 0.0 0.00 0.00 0.00 91 1011.7
20260504035103 7 353 0.0 0.0 0.00 0.00 0.00 91 1011.8
20260504034603 7 353 0.0 1.6 0.00 0.00 0.00 91 1011.7
20260504034103 7 353 0.0 0.0 0.00 0.00 0.00 90 1011.7
20260504033103 7 353 0.0 0.0 0.00 0.00 0.00 89 1011.6
20260504032603 7 353 0.0 0.0 0.00 0.00 0.00 89 1011.6
20260504032104 7 353 0.0 0.0 0.00 0.00 0.00 88 1011.6
20260504031604 7 353 0.0 0.0 0.00 0.00 0.00 88 1011.5
20260504031103 8 353 0.0 0.0 0.00 0.00 0.00 87 1011.5
20260504030603 8 353 0.0 0.0 0.00 0.00 0.00 87 1011.4
20260504030104 8 353 0.0 0.0 0.00 0.00 0.00 87 1011.5
20260504025603 7 353 0.0 0.0 0.00 0.00 0.00 87 1011.5
20260504025103 7 353 0.0 1.6 0.00 0.00 0.00 87 1011.6
20260504024603 7 353 0.0 1.6 0.00 0.00 0.00 88 1011.7
20260504024104 7 353 0.0 1.6 0.00 0.00 0.00 86 1011.6
20260504023103 7 353 0.0 3.2 0.00 0.00 0.00 85 1011.7
20260504022604 7 353 1.6 3.2 0.00 0.00 0.00 86 1011.4
20260504022104 7 353 0.0 0.0 0.00 0.00 0.00 84 1011.7
20260504021604 8 353 0.0 1.6 0.00 0.00 0.00 83 1011.5
20260504021104 8 354 0.0 0.0 0.00 0.00 0.00 82 1011.5
20260504020604 8 354 0.0 0.0 0.00 0.00 0.00 81 1011.6
20260504015603 8 353 1.6 1.6 0.00 0.00 0.00 81 1011.5
20260504015103 8 353 0.0 1.6 0.00 0.00 0.00 79 1011.5
20260504014604 8 353 0.0 1.6 0.00 0.00 0.00 79 1011.4
20260504014104 8 353 1.6 1.6 0.00 0.00 0.00 78 1011.5
20260504013604 8 353 0.0 0.0 0.00 0.00 0.00 78 1011.5
20260504013103 8 352 0.0 0.0 0.00 0.00 0.00 78 1011.4
20260504012104 9 352 0.0 0.0 0.00 0.00 0.00 76 1011.3
20260504010603 10 352 0.0 1.6 0.00 0.00 0.00 73 1011.2
20260504010104 10 352 0.0 0.0 0.00 0.00 0.00 71 1011.2
20260504005603 10 352 0.0 0.0 0.00 0.00 0.00 70 1011.0
20260504005104 10 351 0.0 0.0 0.00 0.00 0.00 69 1011.1
20260504004603 10 351 0.0 0.0 0.00 0.00 0.00 68 1011.1
20260504004103 10 351 0.0 0.0 0.00 0.00 0.00 68 1011.0
20260504003103 11 351 0.0 0.0 0.00 0.00 0.00 64 1010.9
20260504002603 11 351 0.0 0.0 0.00 0.00 0.00 63 1010.8
20260504002104 11 351 0.0 0.0 0.00 0.00 0.00 61 1010.7
20260504001604 11 351 0.0 0.0 0.00 0.00 0.00 61 1010.6
20260504001104 12 351 0.0 0.0 0.00 0.00 0.00 59 1010.6
20260504000603 12 351 0.0 0.0 0.00 0.00 0.00 57 1010.4
20260504000104 13 351 0.0 1.6 0.00 0.00 0.00 55 1010.4
20260503235604 13 351 1.6 1.6 0.00 0.00 0.00 57 1010.3
20260503235104 13 351 0.0 1.6 0.00 0.00 0.00 53 1010.3
20260503234604 14 351 1.6 1.6 0.00 0.00 0.00 52 1010.2
20260503234104 15 351 1.6 3.2 0.00 0.00 0.00 46 1010.3
20260503233604 15 351 0.0 1.6 0.00 0.00 0.00 47 1010.4
20260503233103 15 351 1.6 3.2 0.00 0.00 0.00 44 1010.1
20260503232104 15 351 0.0 1.6 0.00 0.00 0.00 44 1010.1
20260503231604 15 351 0.0 1.6 0.00 0.00 0.00 46 1010.1
20260503231103 15 351 0.0 1.6 0.00 0.00 0.00 44 1010.1
20260503230604 16 351 0.0 1.6 0.00 0.00 0.00 42 1010.2
20260503225604 16 350 3.2 4.8 0.00 0.00 0.00 42 1010.2
20260503225104 16 351 0.0 3.2 0.00 0.00 0.00 42 1010.2
20260503224604 17 352 1.6 3.2 0.00 0.00 0.00 40 1010.2
20260503224104 17 350 1.6 9.7 0.00 0.00 0.00 40 1010.1
20260503223604 17 351 0.0 1.6 0.00 0.00 0.00 40 1010.2
20260503223103 17 352 1.6 8.0 0.00 0.00 0.00 39 1010.2
20260503222603 18 352 1.6 8.0 0.00 0.00 0.00 39 1010.1
20260503222103 18 353 3.2 8.0 0.00 0.00 0.00 37 1010.1
20260503221104 17 338 4.8 16.1 0.00 0.00 0.00 39 1010.2
20260503220603 18 351 4.8 9.7 0.00 0.00 0.00 36 1010.2
20260503220104 18 350 3.2 4.8 0.00 0.00 0.00 37 1010.2
20260503215104 18 353 1.6 3.2 0.00 0.00 0.00 39 1010.0
20260503214604 17 351 3.2 11.3 0.00 0.00 0.00 37 1010.0
20260503214104 17 351 3.2 8.0 0.00 0.00 0.00 36 1010.1
20260503213104 18 351 1.6 4.8 0.00 0.00 0.00 37 1009.9
20260503212104 17 352 3.2 12.9 0.00 0.00 0.00 37 1010.1
20260503211603 17 347 8.0 19.3 0.00 0.00 0.00 38 1010.1
20260503211104 18 341 8.0 19.3 0.00 0.00 0.00 37 1009.8
20260503210104 17 346 8.0 14.5 0.00 0.00 0.00 37 1009.8
20260503205604 18 354 3.2 4.8 0.00 0.00 0.00 38 1010.0
20260503204604 18 353 4.8 8.0 0.00 0.00 0.00 38 1009.8
20260503204103 17 354 3.2 9.7 0.00 0.00 0.00 40 1009.7
20260503203603 18 354 3.2 9.7 0.00 0.00 0.00 37 1009.9
20260503203103 18 355 3.2 9.7 0.00 0.00 0.00 39 1009.9
20260503202604 18 354 1.6 4.8 0.00 0.00 0.00 40 1010.0
20260503202104 18 357 4.8 11.3 0.00 0.00 0.00 40 1009.9
20260503201604 17 355 1.6 4.8 0.00 0.00 0.00 41 1010.1
20260503200604 17 350 6.4 16.1 0.00 0.00 0.00 42 1010.2
20260503200104 17 354 8.0 11.3 0.00 0.00 0.00 39 1010.2
20260503195604 17 354 3.2 14.5 0.00 0.00 0.00 40 1010.3
20260503194104 17 353 6.4 16.1 0.00 0.00 0.00 37 1010.5
20260503193603 17 355 4.8 12.9 0.00 0.00 0.00 39 1010.6
20260503193104 17 354 6.4 12.9 0.00 0.00 0.00 40 1010.4
20260503192604 18 356 1.6 3.2 0.00 0.00 0.00 37 1010.7
20260503192104 18 356 3.2 9.7 0.00 0.00 0.00 39 1010.7
20260503191103 18 355 3.2 4.8 0.00 0.00 0.00 39 1010.7
20260503184104 17 356 1.6 9.7 0.00 0.00 0.00 40 1011.2
20260503183103 17 356 1.6 3.2 0.00 0.00 0.00 40 1011.2
20260503182604 16 353 4.8 12.9 0.00 0.00 0.00 40 1011.3
20260503182104 17 355 1.6 4.8 0.00 0.00 0.00 42 1011.1
20260503181603 17 356 3.2 9.7 0.00 0.00 0.00 43 1011.3
20260503181103 17 355 3.2 9.7 0.00 0.00 0.00 45 1011.2
20260503180604 17 353 3.2 8.0 0.00 0.00 0.00 43 1011.3
20260503180104 16 346 4.8 14.5 0.00 0.00 0.00 42 1011.4
20260503175604 16 349 4.8 14.5 0.00 0.00 0.00 41 1011.5
20260503175103 16 353 3.2 8.0 0.00 0.00 0.00 43 1011.5
20260503174603 16 355 4.8 8.0 0.00 0.00 0.00 45 1011.4
20260503174103 16 356 4.8 8.0 0.00 0.00 0.00 42 1011.6
20260503173604 16 355 3.2 9.7 0.00 0.00 0.00 45 1011.4
20260503173104 16 352 8.0 22.5 0.00 0.00 0.00 43 1011.7
20260503172604 17 354 3.2 8.0 0.00 0.00 0.00 42 1011.6
20260503172103 16 356 3.2 11.3 0.00 0.00 0.00 44 1011.5
20260503171603 16 354 1.6 8.0 0.00 0.00 0.00 43 1011.7
20260503170604 15 355 4.8 9.7 0.00 0.00 0.00 45 1011.6
20260503170104 14 351 3.2 19.3 0.00 0.00 0.00 47 1011.9
20260503160104 15 358 3.2 12.9 0.00 0.00 0.00 46 1012.4
20260503150603 13 1 3.2 9.7 0.00 0.00 0.00 48 1012.4
20260503150105 13 4 3.2 9.7 0.00 0.00 0.00 50 1012.4
20260503140104 13 6 0.0 0.0 0.00 0.00 0.00 56 1012.2
20260503131103 12 3 0.0 0.0 0.00 0.00 0.00 60 1011.9
20260503130604 12 4 0.0 0.0 0.00 0.00 0.00 62 1012.1
20260503130104 12 4 0.0 0.0 0.00 0.00 0.00 63 1012.2
20260503120105 10 6 0.0 0.0 0.00 0.00 0.00 70 1011.7
20260503110604 7 9 0.0 0.0 0.00 0.00 0.00 80 1011.2
20260503110104 7 9 0.0 0.0 0.00 0.00 0.00 81 1011.1
20260503100104 8 9 0.0 0.0 0.00 0.00 0.00 73 1009.5
20260503081604 10 9 0.0 0.0 0.00 0.00 0.00 71 1008.3
20260503081104 10 9 0.0 0.0 0.00 0.00 0.00 72 1008.3
20260503080603 10 9 0.0 0.0 0.00 0.00 0.00 74 1008.5
20260503080104 10 9 0.0 0.0 0.00 0.00 0.00 74 1008.1
20260503072603 10 9 0.0 0.0 0.00 0.00 0.00 72 1007.8
20260503072103 10 9 0.0 0.0 0.00 0.00 0.00 71 1007.7
20260503071604 10 9 0.0 0.0 0.00 0.00 0.00 73 1007.9
20260503071104 10 10 0.0 0.0 0.00 0.00 0.00 72 1007.8
20260503070104 10 9 0.0 0.0 0.00 0.00 0.00 74 1007.5
20260503060105 8 10 0.0 0.0 0.00 0.00 0.00 91 1007.3
20260503055104 8 10 0.0 0.0 0.00 0.00 0.00 95 1007.4
20260503054604 8 10 0.0 0.0 0.00 0.00 0.00 96 1007.4
20260503054104 8 10 0.0 0.0 0.00 0.00 0.00 95 1007.3
20260503053603 8 10 0.0 0.0 0.00 0.00 0.00 95 1007.4
20260503052603 7 10 0.0 0.0 0.00 0.00 0.00 96 1007.4
20260503052104 7 10 0.0 0.0 0.00 0.00 0.00 97 1007.6